This is the latest recevied weather packets stored in our database for station/object HS3MXC-2. If no packets are shown the sender has not sent any weather packets the latest 10 day(s).
| Time | Temp. | Humidity | Pressure | Rain* | Wind** | Luminosity | Snow |
|---|---|---|---|---|---|---|---|
| 1777458600 | 31.11° C | 58% | 993.1 hPa | - | - | - | - |
| 1777458293 | 31.11° C | 58% | 992.9 hPa | - | - | - | - |
| 1777457986 | 31.11° C | 57% | 992.8 hPa | - | - | - | - |
| 1777457679 | 31.11° C | 58% | 992.7 hPa | - | - | - | - |
| 1777457372 | 31.11° C | 58% | 992.8 hPa | - | - | - | - |
| 1777456445 | 30.56° C | 59% | 992.5 hPa | - | - | - | - |
| 1777456137 | 30° C | 58% | 992.4 hPa | - | - | - | - |
| 1777455828 | 28.33° C | 63% | 992.4 hPa | - | - | - | - |
| 1777455521 | 24.44° C | 42% | 992.3 hPa | - | - | - | - |
| 1777454594 | 25° C | 43% | 992.4 hPa | - | - | - | - |
| 1777454287 | 25.56° C | 44% | 992.4 hPa | - | - | - | - |
| 1777453980 | 25.56° C | 42% | 992.4 hPa | - | - | - | - |
| 1777453673 | 25.56° C | 40% | 992.4 hPa | - | - | - | - |
| 1777453365 | 25° C | 41% | 992.5 hPa | - | - | - | - |
| 1777453055 | 25° C | 41% | 992.5 hPa | - | - | - | - |
| 1777452741 | 25.56° C | 40% | 992.5 hPa | - | - | - | - |
| 1777452202 | 25° C | 41% | 992.7 hPa | - | - | - | - |
| 1777451895 | 25° C | 41% | 992.7 hPa | - | - | - | - |
| 1777451578 | 25° C | 41% | 992.7 hPa | - | - | - | - |
| 1777451271 | 25.56° C | 41% | 992.7 hPa | - | - | - | - |
| 1777450963 | 25.56° C | 41% | 992.7 hPa | - | - | - | - |
| 1777450654 | 25.56° C | 41% | 992.7 hPa | - | - | - | - |
| 1777450347 | 25.56° C | 41% | 992.7 hPa | - | - | - | - |
| 1777450040 | 25.56° C | 42% | 992.8 hPa | - | - | - | - |
| 1777449418 | 25.56° C | 43% | 993 hPa | - | - | - | - |
* Rain since midnight (hover to see other rain measurements)
** Current wind speed in m/s (hover to see current wind gust speed)